Weather History for KFTK - May, 2013

Change the Weather History Date:

Wednesday, May 15, 2013

  Actual Average Record
Temperature  
Mean Temperature 75 °F -  
Max Temperature 85 °F 73 °F 86 °F (1998)
Min Temperature 65 °F 53 °F 39 °F (1997)
Cooling Degree Days 10    
Growing Degree Days 25 (Base 50)    
Moisture  
Dew Point 55 °F    
Average Humidity 51    
Maximum Humidity 75    
Minimum Humidity 32    
Precipitation  
Precipitation 0.00 in - - ()
Sea Level Pressure  
Sea Level Pressure 29.95 in    
Wind  
Wind Speed 10 mph (SW)    
Max Wind Speed 18 mph    
Max Gust Speed 25 mph    
Visibility 10 miles    
Events      
Averages and records for this station are not official NWS values.
T = Trace of Precipitation, MM = Missing Value Source: NWS Daily Summary

Daily Weather History Graph

Daily Weather History Graph

Search for Another Location

Airport or City:

Trip Planner

Search our weather history database for the weather conditions in past years. The results will help you decide how hot, cold, wet, or windy it might be!

Date:

Astronomy

May. 15, 2013 Rise Set
Actual Time 6:33 AM EDT 8:47 PM EDT
Civil Twilight 6:04 AM EDT 9:17 PM EDT
Nautical Twilight 5:27 AM EDT 9:53 PM EDT
Astronomical Twilight 4:48 AM EDT 10:32 PM EDT
Moon 11:07 AM EDT (5/15) 12:34 AM EDT (5/15)
Length of Visible Light 15h 12m
Length of Day
14h 13m
Waxing Crescent, 26% of the Moon is Illuminated
May 15
Waxing Crescent
May 18
First Quarter
May 25
Full
May 31
Last Quarter
Jun 8
New

Hourly Weather History & Observations

Time (EDT) Temp. Heat Index Dew Point Humidity Pressure Visibility Wind Dir Wind Speed Gust Speed Precip Events Conditions
12:58 AM 68.9 °F - 57.2 °F 66% 29.94 in 10.0 mi SSW 6.9 mph - N/A   Clear
1:58 AM 66.6 °F - 57.4 °F 72% 29.94 in 10.0 mi SSW 5.8 mph - N/A   Clear
2:58 AM 65.7 °F - 57.6 °F 75% 29.94 in 10.0 mi SSW 6.9 mph - N/A   Clear
3:58 AM 65.5 °F - 57.4 °F 75% 29.94 in 10.0 mi SSW 6.9 mph - N/A   Clear
4:58 AM 65.7 °F - 57.0 °F 74% 29.94 in 10.0 mi SW 6.9 mph - N/A   Clear
5:58 AM 65.8 °F - 56.8 °F 73% 29.95 in 10.0 mi SSW 9.2 mph - N/A   Clear
6:58 AM 65.5 °F - 56.3 °F 72% 29.97 in 10.0 mi SSW 8.1 mph - N/A   Clear
7:58 AM 69.1 °F - 57.4 °F 66% 29.99 in 10.0 mi SW 8.1 mph - N/A   Clear
8:58 AM 72.3 °F - 57.7 °F 60% 30.00 in 10.0 mi WSW 10.4 mph 20.7 mph N/A   Clear
9:58 AM 75.9 °F - 58.1 °F 54% 30.00 in 10.0 mi WSW 11.5 mph - N/A   Clear
10:58 AM 79.0 °F - 58.3 °F 49% 30.00 in 10.0 mi WSW 11.5 mph 17.3 mph N/A   Clear
11:58 AM 80.8 °F 81.1 °F 57.9 °F 46% 29.99 in 10.0 mi WSW 10.4 mph 20.7 mph N/A   Clear
12:58 PM 82.2 °F 82.0 °F 57.9 °F 43% 29.98 in 10.0 mi SW 16.1 mph - N/A   Clear
1:58 PM 83.7 °F 82.8 °F 56.3 °F 39% 29.97 in 10.0 mi SW 13.8 mph 20.7 mph N/A   Clear
2:04 PM 84.2 °F 83.0 °F 55.4 °F 37% 29.98 in 10.0 mi SSW 13.8 mph - N/A   Clear
2:08 PM 84.2 °F 83.0 °F 55.4 °F 37% 29.98 in 10.0 mi WSW 12.7 mph - N/A   Clear
2:09 PM 84.2 °F 83.0 °F 55.4 °F 37% 29.98 in 10.0 mi WSW 12.7 mph - N/A   Clear
2:58 PM 85.1 °F 83.9 °F 56.3 °F 37% 29.95 in 10.0 mi WSW 18.4 mph 25.3 mph N/A   Clear
3:58 PM 85.3 °F - 52.7 °F 33% 29.93 in 10.0 mi SW 16.1 mph 25.3 mph N/A   Clear
4:58 PM 84.9 °F - 52.2 °F 32% 29.92 in 10.0 mi SSW 16.1 mph 25.3 mph N/A   Clear
5:58 PM 84.6 °F 83.2 °F 54.9 °F 36% 29.90 in 10.0 mi WSW 18.4 mph 19.6 mph N/A   Clear
6:58 PM 81.9 °F 81.1 °F 53.8 °F 38% 29.90 in 10.0 mi SW 9.2 mph - N/A   Clear
7:58 PM 79.0 °F - 51.4 °F 38% 29.91 in 10.0 mi SSW 10.4 mph - N/A   Clear
8:58 PM 75.0 °F - 48.2 °F 39% 29.91 in 10.0 mi SSW 9.2 mph - N/A   Clear
9:58 PM 70.9 °F - 50.7 °F 49% 29.92 in 10.0 mi SSW 10.4 mph - N/A   Clear
10:58 PM 71.2 °F - 49.6 °F 46% 29.94 in 10.0 mi SW 11.5 mph - N/A   Clear
11:58 PM 69.3 °F - 48.2 °F 47% 29.92 in 10.0 mi SW 9.2 mph - N/A   Clear